Weather History for Bentonville, AR

Change the Weather History Date:

Saturday, December 15, 2012

  Actual Average Record
Temperature  
Mean Temperature 53 °F -  
Max Temperature 60 °F 47 °F 68 °F (1948)
Min Temperature 46 °F 25 °F -4 °F (1985)
Degree Days  
Heating Degree Days 12    
Growing Degree Days 3 (Base 50)    
Moisture  
Dew Point 39 °F    
Average Humidity 61    
Maximum Humidity 87    
Minimum Humidity 42    
Precipitation  
Precipitation 0.07 in - - ()
Sea Level Pressure  
Sea Level Pressure 29.74 in    
Wind  
Wind Speed 14 mph (SSW)    
Max Wind Speed 21 mph    
Max Gust Speed 28 mph    
Visibility 10 miles    
Events      
Averages and records for this station are not official NWS values.
T = Trace of Precipitation, MM = Missing Value Source: NWS Daily Summary

Daily Weather History Graph

Daily Weather History Graph

Search for Another Location

Airport:

Trip Planner

Search our weather history database for the weather conditions in past years. The results will help you decide how hot, cold, wet, or windy it might be!

Date:

Astronomy

Dec. 15, 2012 Rise Set
Actual Time 7:21 AM CST 5:03 PM CST
Civil Twilight 6:52 AM CST 5:31 PM CST
Nautical Twilight 6:20 AM CST 6:04 PM CST
Astronomical Twilight 5:49 AM CST 6:35 PM CST
Moon 9:17 AM CST (12/15) 8:04 PM CST (12/15)
Length of Visible Light 10h 39m
Length of Day
9h 41m
Waxing Crescent, 8% of the Moon is Illuminated
Dec 15
Waxing Crescent
Dec 19
First Quarter
Dec 28
Full
Jan 4
Last Quarter
Jan 11
New

Hourly Weather History & Observations

Time (CST) Temp. Windchill Dew Point Humidity Pressure Visibility Wind Dir Wind Speed Gust Speed Precip Events Conditions
12:15 AM 51.8 °F - 42.8 °F 71% 29.77 in 10.0 mi South 16.1 mph 26.5 mph N/A   Overcast
12:35 AM 51.8 °F - 44.6 °F 76% 29.78 in 10.0 mi South 16.1 mph 24.2 mph N/A   Overcast
12:55 AM 50.0 °F - 44.6 °F 82% 29.79 in 9.0 mi South 13.8 mph 21.9 mph 0.07 in   Overcast
1:15 AM 50.0 °F - 44.6 °F 82% 29.76 in 10.0 mi South 13.8 mph 20.7 mph N/A   Overcast
1:55 AM 50.0 °F - 44.6 °F 82% 29.75 in 10.0 mi South 16.1 mph - N/A   Overcast
2:15 AM 50.0 °F - 44.6 °F 82% 29.76 in 10.0 mi South 9.2 mph 17.3 mph N/A   Overcast
2:35 AM 50.0 °F - 44.6 °F 82% 29.75 in 10.0 mi South 10.4 mph 18.4 mph N/A   Overcast
2:55 AM 50.0 °F - 46.4 °F 87% 29.74 in 10.0 mi South 12.7 mph 19.6 mph N/A   Overcast
3:15 AM 51.8 °F - 46.4 °F 82% 29.73 in 10.0 mi South 16.1 mph 23.0 mph N/A   Overcast
3:35 AM 51.8 °F - 46.4 °F 82% 29.73 in 10.0 mi South 16.1 mph 21.9 mph N/A   Overcast
4:15 AM 51.8 °F - 46.4 °F 82% 29.71 in 10.0 mi South 17.3 mph 23.0 mph N/A   Mostly Cloudy
4:35 AM 51.8 °F - 46.4 °F 82% 29.70 in 10.0 mi South 15.0 mph 20.7 mph N/A   Partly Cloudy
4:55 AM 51.8 °F - 46.4 °F 82% 29.70 in 10.0 mi South 16.1 mph 21.9 mph N/A   Partly Cloudy
5:16 AM 51.8 °F - 46.4 °F 82% 29.69 in 10.0 mi SSW 13.8 mph 20.7 mph N/A   Partly Cloudy
5:35 AM 51.8 °F - 46.4 °F 82% 29.70 in 10.0 mi South 12.7 mph 19.6 mph N/A   Clear
5:55 AM 51.8 °F - 44.6 °F 76% 29.70 in 10.0 mi South 13.8 mph 19.6 mph N/A   Clear
6:35 AM 51.8 °F - 44.6 °F 76% 29.71 in 10.0 mi SSW 16.1 mph 21.9 mph N/A   Clear
6:55 AM 51.8 °F - 44.6 °F 76% 29.72 in 10.0 mi SSW 13.8 mph 20.7 mph N/A   Clear
7:35 AM 51.8 °F - 42.8 °F 71% 29.74 in 10.0 mi SSW 12.7 mph 19.6 mph N/A   Clear
8:15 AM 51.8 °F - 42.8 °F 71% 29.74 in 10.0 mi SSW 13.8 mph 19.6 mph N/A   Clear
8:36 AM 53.6 °F - 42.8 °F 67% 29.74 in 10.0 mi SSW 15.0 mph 23.0 mph N/A   Clear
8:55 AM 53.6 °F - 41.0 °F 62% 29.75 in 10.0 mi SW 18.4 mph 24.2 mph N/A   Clear
9:15 AM 53.6 °F - 41.0 °F 62% 29.75 in 10.0 mi SW 20.7 mph 26.5 mph N/A   Clear
9:55 AM 55.4 °F - 39.2 °F 54% 29.76 in 10.0 mi SW 19.6 mph 27.6 mph N/A   Clear
10:15 AM 55.4 °F - 39.2 °F 54% 29.76 in 10.0 mi SW 16.1 mph 27.6 mph N/A   Clear
10:35 AM 57.2 °F - 39.2 °F 51% 29.76 in 10.0 mi SW 16.1 mph 26.5 mph N/A   Clear
10:56 AM 57.2 °F - 39.2 °F 51% 29.76 in 10.0 mi SW 18.4 mph 23.0 mph N/A   Clear
11:15 AM 59.0 °F - 39.2 °F 48% 29.76 in 10.0 mi SW 17.3 mph 23.0 mph N/A   Clear
11:35 AM 59.0 °F - 39.2 °F 48% 29.75 in 10.0 mi SW 16.1 mph 23.0 mph N/A   Clear
11:56 AM 59.0 °F - 37.4 °F 45% 29.73 in 10.0 mi SW 17.3 mph - N/A   Clear
12:15 PM 59.0 °F - 37.4 °F 45% 29.73 in 10.0 mi SW 16.1 mph 20.7 mph N/A   Clear
12:35 PM 60.8 °F - 39.2 °F 45% 29.73 in 10.0 mi SW 16.1 mph 21.9 mph N/A   Clear
12:56 PM 60.8 °F - 37.4 °F 42% 29.72 in 10.0 mi SW 13.8 mph 25.3 mph N/A   Clear
1:15 PM 60.8 °F - 37.4 °F 42% 29.71 in 10.0 mi SW 12.7 mph 23.0 mph N/A   Clear
1:35 PM 60.8 °F - 37.4 °F 42% 29.70 in 10.0 mi SW 17.3 mph 26.5 mph N/A   Clear
2:15 PM 60.8 °F - 37.4 °F 42% 29.70 in 10.0 mi SSW 15.0 mph 23.0 mph N/A   Clear
2:35 PM 60.8 °F - 37.4 °F 42% 29.70 in 10.0 mi SSW 13.8 mph 21.9 mph N/A   Clear
2:56 PM 60.8 °F - 37.4 °F 42% 29.70 in 10.0 mi SSW 15.0 mph - N/A   Clear
3:15 PM 60.8 °F - 37.4 °F 42% 29.70 in 10.0 mi SW 15.0 mph - N/A   Clear
3:35 PM 60.8 °F - 37.4 °F 42% 29.70 in 10.0 mi SW 13.8 mph 17.3 mph N/A   Clear
4:15 PM 57.2 °F - 35.6 °F 44% 29.72 in 10.0 mi SW 9.2 mph - N/A   Clear
4:35 PM 57.2 °F - 35.6 °F 44% 29.72 in 10.0 mi SW 10.4 mph 16.1 mph N/A   Clear
5:15 PM 53.6 °F - 35.6 °F 51% 29.72 in 10.0 mi SW 6.9 mph - N/A   Clear
5:35 PM 51.8 °F - 35.6 °F 54% 29.73 in 10.0 mi SW 6.9 mph - N/A   Clear
5:55 PM 51.8 °F - 33.8 °F 50% 29.74 in 10.0 mi SW 6.9 mph - N/A   Clear
6:16 PM 51.8 °F - 33.8 °F 50% 29.75 in 10.0 mi SW 5.8 mph - N/A   Clear
6:35 PM 50.0 °F - 35.6 °F 58% 29.75 in 10.0 mi WSW 5.8 mph - N/A   Clear
6:55 PM 50.0 °F - 35.6 °F 58% 29.76 in 10.0 mi SW 6.9 mph - N/A   Clear
7:15 PM 50.0 °F - 35.6 °F 58% 29.76 in 10.0 mi SSW 6.9 mph - N/A   Clear
7:35 PM 51.8 °F - 35.6 °F 54% 29.76 in 10.0 mi SSW 5.8 mph - N/A   Clear
7:55 PM 50.0 °F - 33.8 °F 54% 29.76 in 10.0 mi SSW 4.6 mph - N/A   Clear
8:15 PM 48.2 °F - 33.8 °F 58% 29.76 in 10.0 mi SW 5.8 mph - N/A   Clear
8:35 PM 50.0 °F - 33.8 °F 54% 29.76 in 10.0 mi SSW 6.9 mph - N/A   Clear
8:55 PM 51.8 °F - 33.8 °F 50% 29.76 in 10.0 mi SSW 6.9 mph - N/A   Clear
9:15 PM 50.0 °F - 33.8 °F 54% 29.76 in 10.0 mi SW 8.1 mph - N/A   Clear
9:55 PM 48.2 °F - 33.8 °F 58% 29.76 in 10.0 mi SW 8.1 mph - N/A   Clear
10:15 PM 50.0 °F - 33.8 °F 54% 29.76 in 10.0 mi SSW 6.9 mph - N/A   Clear
10:35 PM 48.2 °F - 33.8 °F 58% 29.76 in 10.0 mi SSW 5.8 mph - N/A   Clear
10:55 PM 46.4 °F 43.5 °F 33.8 °F 62% 29.76 in 10.0 mi SW 5.8 mph - N/A   Clear
11:15 PM 48.2 °F - 33.8 °F 58% 29.75 in 10.0 mi SSW 5.8 mph - N/A   Clear
11:35 PM 46.4 °F 44.3 °F 33.8 °F 62% 29.76 in 10.0 mi SSW 4.6 mph - N/A   Clear